{"data":{"norad_id":48596,"intl_designator":"2021-041AV","name":"STARLINK-2253","alt_names":[],"object_type":"PAYLOAD","status":"ACTIVE","operator":null,"country":"US","launch_date":"2021-05-15","launch_site_code":"AFETR","launch_vehicle":null,"mission":null,"orbit_class":"UNKNOWN","rcs_meters":null,"size_class":null,"mass_kg":null,"dimensions":null,"purposes":["comms"],"wikipedia_slug":null,"has_3d_model":false,"image_url":null,"decayed_at":null,"tle_current":{"epoch":"2026-05-25T03:36:31.682880Z","epoch_age_seconds":68784,"freshness":"FRESH","line1":"1 48596U 21041AV  26145.15036670  .00000661  00000+0  33067-4 0  9991","line2":"2 48596  53.1585 143.9227 0001192  84.8465 275.2672 15.31705128277265","mean_motion":15.31705128,"eccentricity":0.0001192,"inclination_deg":53.1585,"raan_deg":143.9227,"arg_perigee_deg":84.8465,"mean_anomaly_deg":275.2672,"bstar":3.3067e-5,"rev_number":27726,"period_min":94.012873214067,"perigee_km":469.90832465143,"apogee_km":471.54109328284,"semimajor_km":6848.8617089671,"source":"CELESTRAK","updated_at":"2026-05-25T13:38:16.751567Z"}}}